When you browse on this site, cookies collect data to enhance your experience and personalize the content and advertising you see.
Visit our Privacy Policy to learn more. By continuing to use the site, you agree to this use of cookies and data.
  • In Denmark
  • List of Countries
  • For 7 days
  • Water Temperature
  • Weather Map
  • Weather Widgets
  • user-avatar
    Login

    Hourly Weather Strachowo

    Today, 27 January, Monday

    Time Temperature Precipitation Wind Pressure Humidity
    00:00 -1°C° 0 mm 2 mps 754 mmHg 76%
    01:00 -1°C° 0 mm 2 mps 754 mmHg 73%
    02:00 -1°C° 0 mm 2 mps 753 mmHg 73%
    03:00 -1°C° 0 mm 2 mps 753 mmHg 73%
    04:00 -1°C° 0 mm 2 mps 753 mmHg 73%
    05:00 -1°C° 0 mm 2 mps 753 mmHg 73%
    06:00 -1°C° 0 mm 2 mps 752 mmHg 74%
    07:00 -1°C° 0 mm 2 mps 752 mmHg 75%
    08:00 -1°C° 0 mm 2 mps 752 mmHg 74%
    09:00 +1°C° 0 mm 2 mps 752 mmHg 72%
    10:00 +1°C° 0 mm 3 mps 752 mmHg 71%
    11:00 +1°C° 0 mm 3 mps 752 mmHg 72%
    12:00 +1°C° 0 mm 3 mps 751 mmHg 73%
    13:00 +3°C° 0 mm 2 mps 751 mmHg 74%
    14:00 +3°C° 0 mm 2 mps 751 mmHg 75%
    15:00 +2°C° 0 mm 3 mps 751 mmHg 77%
    16:00 +2°C° 0 mm 3 mps 750 mmHg 79%
    17:00 +1°C° 0 mm 3 mps 750 mmHg 82%
    18:00 +1°C° 0 mm 3 mps 750 mmHg 86%
    19:00 +1°C° 0 mm 3 mps 750 mmHg 89%
    20:00 +1°C° 0 mm 3 mps 749 mmHg 90%
    21:00 +1°C° 0 mm 3 mps 749 mmHg 90%
    22:00 0°C° 0 mm 3 mps 749 mmHg 90%
    23:00 0°C° 0 mm 3 mps 748 mmHg 90%

    Tomorrow, 28 January, Tuesday

    Time Temperature Precipitation Wind Pressure Humidity
    00:00 0°C° 0 mm 3 mps 748 mmHg 90%
    01:00 0°C° 0 mm 3 mps 747 mmHg 90%
    02:00 0°C° 0 mm 3 mps 747 mmHg 89%
    03:00 0°C° 0 mm 3 mps 746 mmHg 89%
    04:00 -1°C° 0 mm 4 mps 745 mmHg 89%
    05:00 -1°C° 0 mm 4 mps 745 mmHg 89%
    06:00 -1°C° 0 mm 4 mps 744 mmHg 88%
    07:00 -1°C° 0 mm 4 mps 744 mmHg 87%
    08:00 0°C° 0 mm 4 mps 743 mmHg 83%
    09:00 +1°C° 0 mm 5 mps 743 mmHg 78%
    10:00 +2°C° 0 mm 5 mps 742 mmHg 74%
    11:00 +2°C° 0 mm 5 mps 742 mmHg 72%
    12:00 +2°C° 0 mm 5 mps 741 mmHg 71%
    13:00 +4°C° 0 mm 4 mps 740 mmHg 69%
    14:00 +3°C° 0.3 mm 4 mps 740 mmHg 75%
    15:00 +3°C° 0.3 mm 4 mps 739 mmHg 80%
    16:00 +3°C° 0.3 mm 4 mps 738 mmHg 85%
    17:00 +3°C° 0.2 mm 4 mps 738 mmHg 86%
    18:00 +3°C° 0.2 mm 4 mps 738 mmHg 86%
    19:00 +3°C° 0.2 mm 4 mps 738 mmHg 86%
    20:00 +3°C° 0.2 mm 4 mps 738 mmHg 85%
    21:00 +3°C° 0.2 mm 4 mps 738 mmHg 84%
    22:00 +3°C° 0.2 mm 4 mps 737 mmHg 84%
    23:00 +1°C° 0 mm 4 mps 737 mmHg 79%

    Day after tomorrow, 29 January, Wednesday

    Time Temperature Precipitation Wind Pressure Humidity
    00:00 +1°C° 0 mm 4 mps 737 mmHg 75%
    01:00 0°C° 0 mm 4 mps 737 mmHg 71%
    02:00 0°C° 0 mm 4 mps 737 mmHg 71%
    03:00 -1°C° 0 mm 4 mps 737 mmHg 72%
    04:00 -1°C° 0 mm 5 mps 737 mmHg 72%
    05:00 -1°C° 0 mm 5 mps 737 mmHg 78%
    06:00 -3°C° 0 mm 6 mps 737 mmHg 83%
    07:00 -3°C° 0 mm 6 mps 737 mmHg 88%
    08:00 -3°C° 0.2 mm 7 mps 738 mmHg 90%
    09:00 -2°C° 0.2 mm 7 mps 738 mmHg 93%
    10:00 -2°C° 0.2 mm 7 mps 738 mmHg 95%
    11:00 -2°C° 0.4 mm 7 mps 739 mmHg 94%
    12:00 -2°C° 0.4 mm 7 mps 739 mmHg 92%
    13:00 -2°C° 0.4 mm 7 mps 739 mmHg 91%
    14:00 -1°C° 0.1 mm 6 mps 740 mmHg 88%
    15:00 0°C° 0.1 mm 5 mps 740 mmHg 85%
    16:00 0°C° 0.1 mm 5 mps 740 mmHg 81%
    17:00 0°C° 0 mm 5 mps 740 mmHg 86%
    18:00 0°C° 0 mm 5 mps 741 mmHg 90%
    19:00 0°C° 0 mm 5 mps 741 mmHg 94%
    20:00 0°C° 0.1 mm 5 mps 741 mmHg 93%
    21:00 0°C° 0.1 mm 5 mps 741 mmHg 93%
    22:00 0°C° 0.1 mm 5 mps 742 mmHg 92%
    23:00 0°C° 0 mm 5 mps 742 mmHg 91%

    30 January, Thursday

    Time Temperature Precipitation Wind Pressure Humidity
    00:00 0°C° 0 mm 5 mps 743 mmHg 91%
    01:00 0°C° 0 mm 5 mps 743 mmHg 90%
    02:00 0°C° 0 mm 5 mps 744 mmHg 91%
    03:00 -1°C° 0 mm 6 mps 744 mmHg 93%
    04:00 -1°C° 0 mm 6 mps 745 mmHg 94%
    05:00 -1°C° 0 mm 6 mps 745 mmHg 91%
    06:00 -1°C° 0 mm 6 mps 746 mmHg 87%
    07:00 -1°C° 0 mm 7 mps 746 mmHg 83%
    08:00 -1°C° 0 mm 6 mps 747 mmHg 82%
    09:00 -1°C° 0 mm 6 mps 747 mmHg 80%
    10:00 -1°C° 0 mm 6 mps 748 mmHg 79%
    11:00 +1°C° 0 mm 6 mps 748 mmHg 77%
    12:00 +1°C° 0 mm 6 mps 748 mmHg 75%
    13:00 +2°C° 0 mm 6 mps 748 mmHg 73%
    14:00 +2°C° 0.1 mm 6 mps 748 mmHg 78%
    15:00 +1°C° 0.1 mm 6 mps 748 mmHg 82%
    16:00 +1°C° 0.1 mm 6 mps 748 mmHg 86%
    17:00 -1°C° 0 mm 6 mps 748 mmHg 89%
    18:00 -1°C° 0 mm 6 mps 748 mmHg 91%
    19:00 -2°C° 0 mm 6 mps 747 mmHg 94%
    20:00 -1°C° 0.1 mm 6 mps 747 mmHg 94%
    21:00 -1°C° 0.1 mm 6 mps 747 mmHg 95%
    22:00 -1°C° 0.1 mm 6 mps 746 mmHg 95%
    23:00 +1°C° 0.4 mm 6 mps 746 mmHg 94%

    31 January, Friday

    Time Temperature Precipitation Wind Pressure Humidity
    00:00 +2°C° 0.4 mm 6 mps 745 mmHg 93%
    01:00 +2°C° 0.4 mm 7 mps 745 mmHg 92%
    02:00 +2°C° 0.4 mm 7 mps 744 mmHg 92%
    03:00 +2°C° 0.4 mm 7 mps 744 mmHg 92%
    04:00 +2°C° 0.4 mm 6 mps 744 mmHg 92%
    05:00 +2°C° 0.2 mm 6 mps 743 mmHg 92%
    06:00 +2°C° 0.2 mm 6 mps 743 mmHg 93%
    07:00 +1°C° 0.2 mm 6 mps 743 mmHg 93%
    08:00 +1°C° 0.1 mm 5 mps 743 mmHg 90%
    09:00 +1°C° 0.1 mm 5 mps 743 mmHg 87%
    10:00 +1°C° 0.1 mm 5 mps 743 mmHg 84%
    11:00 +1°C° 0.4 mm 4 mps 743 mmHg 88%
    12:00 0°C° 0.4 mm 4 mps 743 mmHg 91%
    13:00 +1°C° 0.4 mm 3 mps 743 mmHg 95%
    14:00 +2°C° 0.1 mm 2 mps 743 mmHg 96%
    15:00 +2°C° 0.1 mm 2 mps 743 mmHg 96%
    16:00 +3°C° 0.1 mm 1 mps 744 mmHg 96%
    17:00 +3°C° 0 mm 1 mps 744 mmHg 96%
    18:00 +2°C° 0 mm 2 mps 745 mmHg 96%
    19:00 +2°C° 0 mm 2 mps 746 mmHg 96%
    20:00 +2°C° 0 mm 2 mps 746 mmHg 96%
    21:00 +2°C° 0 mm 2 mps 746 mmHg 96%
    22:00 +2°C° 0 mm 2 mps 747 mmHg 96%
    23:00 +2°C° 0.1 mm 3 mps 747 mmHg 96%

    1 February, Saturday

    Time Temperature Precipitation Wind Pressure Humidity
    00:00 +3°C° 0.1 mm 4 mps 747 mmHg 95%
    01:00 +4°C° 0.1 mm 4 mps 747 mmHg 95%
    02:00 +4°C° 0 mm 4 mps 747 mmHg 94%
    03:00 +3°C° 0 mm 5 mps 747 mmHg 94%
    04:00 +3°C° 0 mm 5 mps 747 mmHg 93%
    05:00 +2°C° 0 mm 5 mps 747 mmHg 93%
    06:00 +2°C° 0 mm 5 mps 747 mmHg 92%
    07:00 +2°C° 0 mm 5 mps 747 mmHg 92%
    08:00 +3°C° 0 mm 5 mps 747 mmHg 90%
    09:00 +3°C° 0 mm 6 mps 748 mmHg 89%
    10:00 +4°C° 0 mm 6 mps 748 mmHg 87%
    11:00 +4°C° 0 mm 6 mps 748 mmHg 87%
    12:00 +5°C° 0 mm 6 mps 748 mmHg 88%
    13:00 +5°C° 0 mm 6 mps 748 mmHg 88%
    14:00 +6°C° 0 mm 5 mps 748 mmHg 89%
    15:00 +6°C° 0 mm 5 mps 747 mmHg 89%
    16:00 +6°C° 0 mm 4 mps 747 mmHg 90%
    17:00 +6°C° 0 mm 4 mps 747 mmHg 91%
    18:00 +6°C° 0 mm 4 mps 747 mmHg 92%
    19:00 +6°C° 0 mm 4 mps 747 mmHg 93%
    20:00 +6°C° 0 mm 4 mps 747 mmHg 93%
    21:00 +7°C° 0 mm 4 mps 747 mmHg 93%
    22:00 +7°C° 0 mm 4 mps 747 mmHg 93%
    23:00 +7°C° 0.5 mm 5 mps 746 mmHg 93%
    Show more